EW7525 Weather Reports


time (UTC)temp
C
wind
direction
speed
KPH
gust
KPH
rain 1hr
cm
rain 24hr
cm
rain mn
cm
humidity
%
barometer
mb
20260507001710 19 271 0.0 1.6 0.00 0.00 0.00 5 1017.5
20260507001210 19 271 0.0 0.0 0.00 0.00 0.00 4 1017.5
20260507000707 19 252 0.0 0.0 0.00 0.00 0.00 7 1017.5
20260507000206 19 269 0.0 1.6 0.00 0.00 0.00 9 1017.5
20260506235706 20 273 0.0 3.2 0.00 0.00 0.00 13 1017.5
20260506235206 20 248 0.0 3.2 0.00 0.00 0.00 16 1017.6
20260506234708 20 272 0.0 0.0 0.00 0.00 0.00 19 1017.5
20260506234207 20 288 0.0 0.0 0.00 0.00 0.00 22 1017.5
20260506233703 20 273 1.6 22.5 0.00 0.00 0.00 22 1017.5
20260506233202 20 262 1.6 22.5 0.00 0.00 0.00 27 1017.5
20260506232702 21 279 1.6 16.1 0.00 0.00 0.00 28 1017.5
20260506232203 21 277 1.6 14.5 0.00 0.00 0.00 29 1017.6
20260506231714 21 279 1.6 14.5 0.00 0.00 0.00 29 1017.5
20260506231439 21 269 0.0 11.3 0.00 0.00 0.00 32 1017.7
20260506231203 21 269 0.0 6.4 0.00 0.00 0.00 30 1017.6
20260506230702 21 272 0.0 1.6 0.00 0.00 0.00 32 1017.6
20260506225703 21 273 1.6 12.9 0.00 0.00 0.00 30 1017.6
20260506225203 21 286 3.2 17.7 0.00 0.00 0.00 32 1017.7
20260506224700 21 254 1.6 17.7 0.00 0.00 0.00 35 1017.7
20260506224200 21 277 1.6 17.7 0.00 0.00 0.00 32 1017.8
20260506223656 21 279 1.6 16.1 0.00 0.00 0.00 34 1017.8
20260506223438 22 296 0.0 12.9 0.00 0.00 0.00 39 1017.9
20260506222926 22 331 0.0 4.8 0.00 0.00 0.00 39 1017.9
20260506222154 22 270 0.0 11.3 0.00 0.00 0.00 38 1017.9
20260506221652 22 283 1.6 16.1 0.00 0.00 0.00 36 1017.9
20260506221422 22 278 1.6 16.1 0.00 0.00 0.00 37 1018.0
20260506220653 22 284 0.0 16.1 0.00 0.00 0.00 37 1018.0
20260506220152 22 265 0.0 16.1 0.00 0.00 0.00 37 1018.0
20260506215646 22 281 0.0 16.1 0.00 0.00 0.00 33 1018.1
20260506215146 22 272 0.0 16.1 0.00 0.00 0.00 35 1018.1
20260506214916 22 267 1.6 19.3 0.00 0.00 0.00 33 1018.1
20260506214149 22 274 3.2 19.3 0.00 0.00 0.00 40 1018.2
20260506213647 22 267 3.2 19.3 0.00 0.00 0.00 39 1018.2
20260506213148 23 274 3.2 17.7 0.00 0.00 0.00 38 1018.2
20260506212916 23 276 3.2 19.3 0.00 0.00 0.00 39 1018.2
20260506212142 23 254 4.8 19.3 0.00 0.00 0.00 39 1018.3
20260506211643 23 262 4.8 17.7 0.00 0.00 0.00 41 1018.3
20260506211142 23 260 3.2 14.5 0.00 0.00 0.00 40 1018.3
20260506210642 23 272 1.6 14.5 0.00 0.00 0.00 36 1018.3
20260506210411 23 293 0.0 17.7 0.00 0.00 0.00 43 1018.3
20260506205639 23 263 1.6 17.7 0.00 0.00 0.00 40 1018.3
20260506205140 23 249 0.0 6.4 0.00 0.00 0.00 37 1018.3
20260506204639 23 309 1.6 12.9 0.00 0.00 0.00 31 1018.3
20260506204134 23 277 1.6 12.9 0.00 0.00 0.00 27 1018.3
20260506203635 23 279 1.6 12.9 0.00 0.00 0.00 31 1018.3
20260506203135 22 258 1.6 12.9 0.00 0.00 0.00 27 1018.3
20260506202635 22 240 1.6 14.5 0.00 0.00 0.00 20 1018.4
20260506202134 22 273 1.6 17.7 0.00 0.00 0.00 18 1018.4
20260506201631 22 248 3.2 17.7 0.00 0.00 0.00 21 1018.5
20260506201132 22 287 1.6 17.7 0.00 0.00 0.00 18 1018.5
20260506200859 22 267 0.0 11.3 0.00 0.00 0.00 9 1018.5
20260506200129 21 290 0.0 11.3 0.00 0.00 0.00 9 1018.6
20260506195627 21 268 1.6 14.5 0.00 0.00 0.00 12 1018.6
20260506195128 22 264 1.6 14.5 0.00 0.00 0.00 18 1018.7
20260506194626 22 278 1.6 12.9 0.00 0.00 0.00 20 1018.7
20260506194126 22 282 1.6 12.9 0.00 0.00 0.00 12 1018.7
20260506193620 22 286 0.0 6.4 0.00 0.00 0.00 17 1018.7
20260506193120 22 269 0.0 1.6 0.00 0.00 0.00 21 1018.9
20260506192621 22 281 0.0 11.3 0.00 0.00 0.00 27 1018.9
20260506192120 22 250 0.0 11.3 0.00 0.00 0.00 24 1018.9
20260506191620 22 280 0.0 1.6 0.00 0.00 0.00 22 1018.9
20260506191119 22 254 0.0 6.4 0.00 0.00 0.00 29 1018.9
20260506190618 22 259 0.0 6.4 0.00 0.00 0.00 30 1019.0
20260506190116 22 270 0.0 0.0 0.00 0.00 0.00 28 1019.0
20260506185615 22 261 0.0 0.0 0.00 0.00 0.00 32 1019.0
20260506185119 22 267 0.0 0.0 0.00 0.00 0.00 29 1019.1
20260506185115 22 261 0.0 0.0 0.00 0.00 0.00 33 1019.0
20260506184115 22 259 0.0 0.0 0.00 0.00 0.00 32 1019.1
20260506183610 22 261 0.0 0.0 0.00 0.00 0.00 31 1019.2
20260506183341 22 265 0.0 0.0 0.00 0.00 0.00 28 1019.1
20260506183215 22 263 0.0 0.0 0.00 0.00 0.00 27 1019.1
20260506182108 22 262 0.0 0.0 0.00 0.00 0.00 28 1019.2
20260506181612 22 268 0.0 0.0 0.00 0.00 0.00 32 1019.1
20260506181608 22 259 0.0 0.0 0.00 0.00 0.00 31 1019.2
20260506180606 22 306 0.0 0.0 0.00 0.00 0.00 31 1019.2
20260506180111 22 78 0.0 0.0 0.00 0.00 0.00 34 1019.2
20260506175835 22 268 0.0 0.0 0.00 0.00 0.00 26 1019.1
20260506175104 22 254 0.0 0.0 0.00 0.00 0.00 23 1019.0
20260506174602 22 252 0.0 0.0 0.00 0.00 0.00 20 1019.0
20260506174103 21 258 0.0 0.0 0.00 0.00 0.00 17 1019.1
20260506173556 21 255 0.0 0.0 0.00 0.00 0.00 19 1019.2
20260506173056 21 272 0.0 0.0 0.00 0.00 0.00 6 1019.2
20260506172822 21 273 0.0 0.0 0.00 0.00 0.00 3 1019.2
20260506172321 21 268 0.0 0.0 0.00 0.00 0.00 3 1019.1
20260506171550 21 264 0.0 4.8 0.00 0.00 0.00 1 1019.2
20260506171049 20 270 0.0 0.0 0.00 0.00 0.00 1 1019.3
20260506171045 21 270 0.0 4.8 0.00 0.00 0.00 1 1019.3
20260506170057 20 270 0.0 3.2 0.00 0.00 0.00 1 1019.3
20260506165545 20 268 0.0 3.2 0.00 0.00 0.00 1 1019.3
20260506165044 20 267 0.0 0.0 0.00 0.00 0.00 1 1019.4
20260506164546 19 259 0.0 0.0 0.00 0.00 0.00 1 1019.3
20260506164314 19 259 0.0 0.0 0.00 0.00 0.00 1 1019.4
20260506163542 19 267 0.0 0.0 0.00 0.00 0.00 1 1019.4
20260506163042 18 260 0.0 0.0 0.00 0.00 0.00 1 1019.5
20260506162540 18 259 0.0 0.0 0.00 0.00 0.00 1 1019.4
20260506162050 18 185 0.0 3.2 0.00 0.00 0.00 1 1019.3
20260506161539 18 185 0.0 3.2 0.00 0.00 0.00 1 1019.4
20260506161044 17 261 0.0 0.0 0.00 0.00 0.00 1 1019.4
20260506160803 17 261 0.0 0.0 0.00 0.00 0.00 1 1019.4
20260506160637 16 261 0.0 0.0 0.00 0.00 0.00 1 1019.5
20260506155532 16 256 0.0 0.0 0.00 0.00 0.00 1 1019.4
20260506155032 16 267 0.0 0.0 0.00 0.00 0.00 1 1019.4
20260506154533 16 256 0.0 0.0 0.00 0.00 0.00 1 1019.4
20260506154026 15 256 0.0 0.0 0.00 0.00 0.00 1 1019.4
20260506153523 15 257 0.0 0.0 0.00 0.00 0.00 1 1019.3
20260506153022 15 255 0.0 0.0 0.00 0.00 0.00 1 1019.4
20260506152750 15 257 0.0 0.0 0.00 0.00 0.00 1 1019.3
20260506152020 15 257 0.0 0.0 0.00 0.00 0.00 1 1019.3
20260506151517 14 258 0.0 0.0 0.00 0.00 0.00 1 1019.3
20260506151248 14 252 0.0 0.0 0.00 0.00 0.00 1 1019.3
20260506150748 14 250 0.0 0.0 0.00 0.00 0.00 1 1019.3
20260506150247 14 250 0.0 0.0 0.00 0.00 0.00 1 1019.3
20260506145513 14 250 0.0 0.0 0.00 0.00 0.00 1 1019.3
20260506145013 13 250 0.0 0.0 0.00 0.00 0.00 1 1019.3
20260506144513 13 254 0.0 0.0 0.00 0.00 0.00 1 1019.3
20260506144014 13 254 0.0 0.0 0.00 0.00 0.00 1 1019.2
20260506143512 13 254 0.0 0.0 0.00 0.00 0.00 1 1019.2
20260506143013 13 254 0.0 0.0 0.00 0.00 0.00 1 1019.1
20260506142509 13 254 0.0 0.0 0.00 0.00 0.00 1 1019.1
20260506142009 13 254 0.0 0.0 0.00 0.00 0.00 1 1019.1
20260506141509 13 254 0.0 0.0 0.00 0.00 0.00 1 1019.0
20260506141009 13 254 0.0 0.0 0.00 0.00 0.00 1 1019.0
20260506140509 13 254 0.0 0.0 0.00 0.00 0.00 1 1018.9
20260506140009 12 254 0.0 0.0 0.00 0.00 0.00 1 1018.9
20260506135510 12 254 0.0 0.0 0.00 0.00 0.00 1 1018.8
20260506135009 12 254 0.0 0.0 0.00 0.00 0.00 1 1018.8
20260506134509 12 254 0.0 0.0 0.00 0.00 0.00 1 1018.8
20260506134010 12 253 0.0 0.0 0.00 0.00 0.00 1 1018.8
20260506133510 12 253 0.0 0.0 0.00 0.00 0.00 1 1018.8
20260506133236 12 253 0.0 0.0 0.00 0.00 0.00 1 1018.8
20260506132505 12 254 0.0 0.0 0.00 0.00 0.00 1 1018.8
20260506132020 12 254 0.0 0.0 0.00 0.00 0.00 1 1018.8
20260506131507 12 254 0.0 0.0 0.00 0.00 0.00 1 1018.7
20260506131005 12 254 0.0 0.0 0.00 0.00 0.00 1 1018.7
20260506130518 12 254 0.0 0.0 0.00 0.00 0.00 1 1018.7
20260506130003 12 254 0.0 0.0 0.00 0.00 0.00 1 1018.7
20260506125500 13 256 0.0 0.0 0.00 0.00 0.00 1 1018.7
20260506125001 13 256 0.0 0.0 0.00 0.00 0.00 1 1018.6
20260506124500 13 256 0.0 0.0 0.00 0.00 0.00 1 1018.6
20260506124234 13 256 0.0 0.0 0.00 0.00 0.00 1 1018.6
20260506123501 13 252 0.0 0.0 0.00 0.00 0.00 1 1018.5
20260506122957 13 257 0.0 0.0 0.00 0.00 0.00 1 1018.5
20260506122455 13 257 0.0 0.0 0.00 0.00 0.00 1 1018.5
20260506121953 13 257 0.0 0.0 0.00 0.00 0.00 1 1018.5
20260506121447 13 257 0.0 0.0 0.00 0.00 0.00 1 1018.4
20260506120946 13 257 0.0 0.0 0.00 0.00 0.00 1 1018.4
20260506120445 13 257 0.0 0.0 0.00 0.00 0.00 1 1018.4
20260506115943 13 257 0.0 0.0 0.00 0.00 0.00 1 1018.3
20260506115445 13 257 0.0 0.0 0.00 0.00 0.00 1 1018.3
20260506114941 13 257 0.0 0.0 0.00 0.00 0.00 1 1018.3
20260506114441 13 257 0.0 0.0 0.00 0.00 0.00 1 1018.3
20260506113939 13 250 0.0 0.0 0.00 0.00 0.00 1 1018.2
20260506113437 13 250 0.0 0.0 0.00 0.00 0.00 1 1018.2
20260506112937 13 250 0.0 0.0 0.00 0.00 0.00 1 1018.2
20260506112438 13 261 0.0 0.0 0.00 0.00 0.00 1 1018.1
20260506111935 13 261 0.0 0.0 0.00 0.00 0.00 1 1018.1
20260506111435 13 261 0.0 0.0 0.00 0.00 0.00 1 1018.1
20260506111200 13 261 0.0 0.0 0.00 0.00 0.00 1 1018.1
20260506110429 13 261 0.0 0.0 0.00 0.00 0.00 1 1018.0
20260506105927 13 261 0.0 0.0 0.00 0.00 0.00 1 1018.0
20260506105427 13 261 0.0 0.0 0.00 0.00 0.00 1 1018.0
20260506104927 13 261 0.0 0.0 0.00 0.00 0.00 1 1018.0
20260506104424 13 261 0.0 0.0 0.00 0.00 0.00 1 1017.9
20260506103921 13 261 0.0 0.0 0.00 0.00 0.00 1 1017.8
20260506103419 13 261 0.0 0.0 0.00 0.00 0.00 1 1017.8
20260506102917 13 261 0.0 0.0 0.00 0.00 0.00 1 1017.9
20260506102415 13 261 0.0 0.0 0.00 0.00 0.00 1 1017.8
20260506101913 13 262 0.0 0.0 0.00 0.00 0.00 1 1017.8
20260506101644 13 261 0.0 0.0 0.00 0.00 0.00 1 1017.7
20260506100908 13 262 0.0 0.0 0.00 0.00 0.00 1 1017.7
20260506100410 13 262 0.0 0.0 0.00 0.00 0.00 1 1017.7
20260506100405 13 262 0.0 0.0 0.00 0.00 0.00 1 1017.7
20260506095742 13 262 0.0 0.0 0.00 0.00 0.00 1 1017.8
20260506095637 13 262 0.0 0.0 0.00 0.00 0.00 1 1017.7
20260506094905 13 262 0.0 0.0 0.00 0.00 0.00 1 1017.7
20260506094131 13 262 0.0 0.0 0.00 0.00 0.00 1 1017.8
20260506093357 13 262 0.0 0.0 0.00 0.00 0.00 1 1017.7
20260506092856 13 262 0.0 0.0 0.00 0.00 0.00 1 1017.8
20260506092353 13 262 0.0 0.0 0.00 0.00 0.00 1 1017.8
20260506091852 13 262 0.0 0.0 0.00 0.00 0.00 1 1017.8
20260506091618 13 262 0.0 0.0 0.00 0.00 0.00 1 1017.8
20260506090846 13 262 0.0 0.0 0.00 0.00 0.00 1 1017.8
20260506090343 13 262 0.0 0.0 0.00 0.00 0.00 1 1017.8
20260506085841 13 262 0.0 0.0 0.00 0.00 0.00 1 1017.9
20260506085345 13 263 0.0 0.0 0.00 0.00 0.00 1 1017.9
20260506085341 13 262 0.0 0.0 0.00 0.00 0.00 1 1017.9
20260506084336 13 262 0.0 0.0 0.00 0.00 0.00 1 1017.8
20260506083839 13 262 0.0 0.0 0.00 0.00 0.00 1 1017.8
20260506083337 13 262 0.0 0.0 0.00 0.00 0.00 1 1017.8
20260506082834 13 262 0.0 0.0 0.00 0.00 0.00 1 1017.8
20260506082337 13 262 0.0 0.0 0.00 0.00 0.00 1 1017.8
20260506082104 13 262 0.0 0.0 0.00 0.00 0.00 1 1017.8
20260506081607 13 262 0.0 0.0 0.00 0.00 0.00 1 1017.8
20260506081331 13 262 0.0 0.0 0.00 0.00 0.00 1 1017.8
20260506080329 13 262 0.0 0.0 0.00 0.03 0.00 1 1017.8
20260506073325 13 261 0.0 0.0 0.00 0.15 0.00 1 1017.5
20260506072823 13 261 0.0 0.0 0.00 0.15 0.00 1 1017.4
20260506072322 13 261 0.0 0.0 0.00 0.15 0.00 1 1017.4
20260506071817 13 261 0.0 0.0 0.00 0.15 0.00 1 1017.4
20260506071314 13 265 0.0 0.0 0.00 0.18 0.00 1 1017.4
20260506071043 13 274 0.0 0.0 0.00 0.20 0.00 1 1017.4
20260506070311 13 266 0.0 0.0 0.00 0.20 0.00 1 1017.4
20260506061759 13 256 0.0 0.0 0.00 0.38 0.23 1 1017.0
20260506061256 13 274 0.0 0.0 0.00 0.41 0.23 1 1017.0
20260506060756 13 265 0.0 0.0 0.00 0.43 0.23 1 1017.0
20260506060253 13 266 0.0 0.0 0.00 0.46 0.23 1 1017.0
20260506051243 13 260 0.0 0.0 0.00 0.51 0.23 1 1016.7
20260506050743 13 257 0.0 0.0 0.00 0.51 0.23 1 1016.7
20260506050243 13 252 0.0 0.0 0.00 0.51 0.23 1 1016.7
20260506044737 13 256 0.0 0.0 0.00 0.51 0.23 1 1016.5
20260506044234 13 259 0.0 0.0 0.00 0.51 0.23 1 1016.4
20260506043734 13 257 0.0 0.0 0.00 0.51 0.23 1 1016.4
20260506043235 13 264 0.0 0.0 0.00 0.51 0.23 1 1016.3
20260506042735 13 266 0.0 0.0 0.00 0.53 0.23 1 1016.2
20260506042230 13 266 0.0 0.0 0.00 0.53 0.23 1 1016.2
20260506042002 14 270 0.0 0.0 0.00 0.56 0.23 1 1016.1
20260506041231 14 277 0.0 0.0 0.00 0.56 0.23 1 1016.0
20260506040730 14 272 0.0 0.0 0.00 0.56 0.23 1 1016.0
20260506040228 14 273 0.0 0.0 0.00 0.58 0.23 1 1016.0
20260506035730 14 267 0.0 0.0 0.00 0.58 0.23 1 1015.9
20260506035725 14 267 0.0 0.0 0.00 0.58 0.23 1 1015.8
20260506034952 14 265 0.0 0.0 0.00 0.58 0.23 1 1015.9
20260506034221 14 265 0.0 0.0 0.00 0.61 0.23 1 1015.8
20260506033722 14 259 0.0 0.0 0.00 0.61 0.23 1 1015.8
20260506033219 14 267 0.0 0.0 0.00 0.61 0.23 1 1015.6
20260506032718 14 277 0.0 0.0 0.00 0.64 0.23 1 1015.6
20260506032217 15 277 0.0 0.0 0.00 0.64 0.23 1 1015.3
20260506032213 15 267 0.0 0.0 0.00 0.64 0.23 1 1015.4
20260506031208 15 256 0.0 0.0 0.00 0.64 0.23 1 1015.2
20260506030707 15 252 0.0 0.0 0.00 0.66 0.23 1 1015.1
20260506030207 15 281 0.0 0.0 0.00 0.66 0.23 1 1015.0
20260506025704 15 275 0.0 0.0 0.00 0.66 0.23 1 1015.0
20260506025204 15 279 0.0 6.4 0.00 0.69 0.23 1 1015.0
20260506024704 15 264 0.0 9.7 0.00 0.71 0.23 1 1015.1
20260506024433 15 283 0.0 9.7 0.00 0.71 0.23 1 1015.0
20260506023702 15 264 0.0 6.4 0.00 0.71 0.23 1 1014.9
20260506023201 15 277 1.6 11.3 0.00 0.71 0.23 1 1014.9
20260506022655 15 260 1.6 11.3 0.00 0.76 0.23 1 1014.8
20260506022153 15 288 0.0 11.3 0.00 0.76 0.23 1 1014.8
20260506021652 16 257 0.0 0.0 0.00 0.76 0.23 1 1014.8
20260506021152 16 261 0.0 0.0 0.00 0.79 0.23 1 1014.7
20260506020653 16 254 0.0 0.0 0.00 0.79 0.23 1 1014.6
20260506020152 16 263 0.0 0.0 0.00 0.79 0.23 1 1014.6
20260506015648 16 271 0.0 0.0 0.00 0.79 0.23 1 1014.5
20260506015149 16 249 0.0 0.0 0.00 0.81 0.23 2 1014.5
20260506014651 16 267 0.0 1.6 0.00 0.81 0.23 4 1014.4
20260506014149 16 267 0.0 12.9 0.00 0.84 0.23 7 1014.4
20260506013649 16 250 3.2 22.5 0.00 0.86 0.23 8 1014.4
20260506013149 16 280 1.6 22.5 0.00 0.86 0.23 15 1014.4
20260506012921 16 255 1.6 16.1 0.00 0.86 0.23 16 1014.3
20260506012142 17 260 0.0 16.1 0.00 0.86 0.23 19 1014.4
20260506011642 17 265 0.0 6.4 0.00 0.89 0.23 24 1014.4
20260506011415 17 289 0.0 0.0 0.00 0.89 0.23 29 1014.4
20260506010643 17 264 0.0 0.0 0.00 0.91 0.23 24 1014.3
20260506010138 17 276 0.0 0.0 0.00 0.91 0.23 24 1014.3
20260506005905 17 261 0.0 0.0 0.00 0.94 0.23 25 1014.3
20260506005402 17 298 1.6 24.1 0.00 0.94 0.23 30 1014.3
20260506004632 18 257 1.6 24.1 0.00 0.97 0.23 32 1014.3
20260506004132 18 298 0.0 1.6 0.00 0.99 0.23 35 1014.2
20260506003633 18 256 0.0 19.3 0.00 1.02 0.23 33 1014.2
20260506003404 18 269 1.6 19.3 0.00 1.02 0.23 33 1014.1
20260506002628 18 268 1.6 19.3 0.00 1.04 0.23 32 1014.1
20260506002129 18 269 0.0 19.3 0.00 1.07 0.23 30 1014.0